Time,TemperatureF,DewpointF,PressureIn,WindDirection,WindDirectionDegrees,WindSpeedMPH,WindSpeedGustMPH,Humidity,HourlyPrecipIn,Conditions,Clouds,dailyrainin,SoftwareType,DateUTC
2013-10-04 00:12:00,41.1,25.0,30.05,SSE,148,0.0,2.0,54,0.00,,,0.00,weatherlink.com 1.10,2013-10-04 07:12:00,
2013-10-04 00:27:00,39.2,26.0,30.06,SSE,148,0.0,0.0,59,0.00,,,0.00,weatherlink.com 1.10,2013-10-04 07:27:00,
2013-10-04 00:42:00,37.7,26.0,30.06,South,186,0.0,0.0,63,0.00,,,0.00,weatherlink.com 1.10,2013-10-04 07:42:00,
2013-10-04 00:57:00,37.6,27.0,30.06,SSE,165,0.0,0.0,65,0.00,,,0.00,weatherlink.com 1.10,2013-10-04 07:57:00,
2013-10-04 01:12:00,37.7,26.0,30.07,East,86,0.0,1.0,63,0.00,,,0.00,weatherlink.com 1.10,2013-10-04 08:12:00,
2013-10-04 01:27:00,37.1,25.0,30.08,West,260,0.0,1.0,61,0.00,,,0.00,weatherlink.com 1.10,2013-10-04 08:27:00,
2013-10-04 01:42:00,38.1,24.0,30.08,ENE,62,0.0,7.0,58,0.00,,,0.00,weatherlink.com 1.10,2013-10-04 08:42:00,
2013-10-04 02:12:00,36.2,25.0,30.09,WNW,292,0.0,3.0,63,0.00,,,0.00,weatherlink.com 1.10,2013-10-04 09:12:00,
2013-10-04 02:27:00,35.8,24.0,30.08,WNW,300,0.0,2.0,63,0.00,,,0.00,weatherlink.com 1.10,2013-10-04 09:27:00,
2013-10-04 02:42:00,34.2,24.0,30.08,WNW,300,0.0,1.0,66,0.00,,,0.00,weatherlink.com 1.10,2013-10-04 09:42:00,
2013-10-04 02:57:00,33.2,24.0,30.08,NNW,337,0.0,1.0,70,0.00,,,0.00,weatherlink.com 1.10,2013-10-04 09:57:00,
2013-10-04 03:12:00,32.3,24.0,30.09,NW,316,0.0,0.0,72,0.00,,,0.00,weatherlink.com 1.10,2013-10-04 10:12:00,
2013-10-04 03:27:00,31.6,24.0,30.10,East,86,0.0,1.0,73,0.00,,,0.00,weatherlink.com 1.10,2013-10-04 10:27:00,
2013-10-04 03:43:00,30.8,23.0,30.10,NNW,328,0.0,1.0,73,0.00,,,0.00,weatherlink.com 1.10,2013-10-04 10:43:00,
2013-10-04 03:58:00,30.5,23.0,30.09,West,271,0.0,1.0,73,0.00,,,0.00,weatherlink.com 1.10,2013-10-04 10:58:00,
2013-10-04 04:13:00,30.0,23.0,30.09,West,278,0.0,1.0,75,0.00,,,0.00,weatherlink.com 1.10,2013-10-04 11:13:00,
2013-10-04 04:28:00,30.1,23.0,30.09,NNW,339,0.0,1.0,76,0.00,,,0.00,weatherlink.com 1.10,2013-10-04 11:28:00,
2013-10-04 04:43:00,29.2,23.0,30.09,NNW,348,0.0,1.0,77,0.00,,,0.00,weatherlink.com 1.10,2013-10-04 11:43:00,
2013-10-04 04:58:00,28.3,23.0,30.10,NNW,348,0.0,1.0,79,0.00,,,0.00,weatherlink.com 1.10,2013-10-04 11:58:00,
2013-10-04 05:13:00,27.8,22.0,30.11,NNW,348,0.0,0.0,80,0.00,,,0.00,weatherlink.com 1.10,2013-10-04 12:13:00,
2013-10-04 05:28:00,27.1,22.0,30.11,NNW,348,0.0,0.0,80,0.00,,,0.00,weatherlink.com 1.10,2013-10-04 12:28:00,
2013-10-04 05:43:00,27.2,22.0,30.11,NNW,335,0.0,1.0,81,0.00,,,0.00,weatherlink.com 1.10,2013-10-04 12:43:00,
2013-10-04 05:58:00,26.7,21.0,30.12,NW,323,0.0,0.0,80,0.00,,,0.00,weatherlink.com 1.10,2013-10-04 12:58:00,
2013-10-04 06:13:00,26.6,21.0,30.12,WSW,258,0.0,1.0,80,0.00,,,0.00,weatherlink.com 1.10,2013-10-04 13:13:00,
2013-10-04 06:28:00,26.4,22.0,30.13,WSW,258,0.0,0.0,82,0.00,,,0.00,weatherlink.com 1.10,2013-10-04 13:28:00,
2013-10-04 06:43:00,26.7,22.0,30.14,WSW,258,0.0,1.0,81,0.00,,,0.00,weatherlink.com 1.10,2013-10-04 13:43:00,
2013-10-04 06:58:00,28.9,22.0,30.14,NNE,32,0.0,1.0,76,0.00,,,0.00,weatherlink.com 1.10,2013-10-04 13:58:00,
2013-10-04 07:13:00,31.8,23.0,30.15,NNE,31,0.0,1.0,70,0.00,,,0.00,weatherlink.com 1.10,2013-10-04 14:13:00,
2013-10-04 07:28:00,34.3,23.0,30.15,NNW,340,0.0,1.0,64,0.00,,,0.00,weatherlink.com 1.10,2013-10-04 14:28:00,
2013-10-04 07:43:00,37.3,22.0,30.16,NNW,340,0.0,1.0,54,0.00,,,0.00,weatherlink.com 1.10,2013-10-04 14:43:00,
2013-10-04 07:58:00,39.3,19.0,30.17,SW,230,0.0,2.0,45,0.00,,,0.00,weatherlink.com 1.10,2013-10-04 14:58:00,
2013-10-04 08:13:00,40.8,20.0,30.17,WSW,243,0.0,2.0,43,0.00,,,0.00,weatherlink.com 1.10,2013-10-04 15:13:00,
2013-10-04 08:28:00,41.5,19.0,30.18,ENE,75,6.0,16.0,41,0.00,,,0.00,weatherlink.com 1.10,2013-10-04 15:28:00,
2013-10-04 08:43:00,41.5,19.0,30.19,ESE,103,12.0,16.0,41,0.00,,,0.00,weatherlink.com 1.10,2013-10-04 15:43:00,
2013-10-04 08:58:00,41.3,18.0,30.19,East,94,7.0,17.0,40,0.00,,,0.00,weatherlink.com 1.10,2013-10-04 15:58:00,
2013-10-04 09:13:00,42.8,19.0,30.19,ENE,63,9.0,15.0,39,0.00,,,0.00,weatherlink.com 1.10,2013-10-04 16:13:00,
2013-10-04 09:28:00,43.2,19.0,30.20,ENE,71,7.0,17.0,38,0.00,,,0.00,weatherlink.com 1.10,2013-10-04 16:28:00,
2013-10-04 09:43:00,43.9,19.0,30.20,NE,46,10.0,14.0,37,0.00,,,0.00,weatherlink.com 1.10,2013-10-04 16:43:00,
2013-10-04 09:58:00,44.7,20.0,30.20,ESE,110,4.0,15.0,37,0.00,,,0.00,weatherlink.com 1.10,2013-10-04 16:58:00,
2013-10-04 10:14:00,46.5,19.0,30.20,ENE,58,0.0,12.0,34,0.00,,,0.00,weatherlink.com 1.10,2013-10-04 17:14:00,
2013-10-04 10:29:00,45.2,18.0,30.20,NE,50,7.0,17.0,34,0.00,,,0.00,weatherlink.com 1.10,2013-10-04 17:29:00,
2013-10-04 10:59:00,48.3,20.0,30.21,NE,51,9.0,11.0,32,0.00,,,0.00,weatherlink.com 1.10,2013-10-04 17:59:00,
2013-10-04 11:14:00,48.5,19.0,30.21,ENE,66,4.0,12.0,31,0.00,,,0.00,weatherlink.com 1.10,2013-10-04 18:14:00,
2013-10-04 11:29:00,48.8,20.0,30.20,East,96,3.0,12.0,32,0.00,,,0.00,weatherlink.com 1.10,2013-10-04 18:29:00,
2013-10-04 11:44:00,49.4,19.0,30.21,NE,34,1.0,15.0,30,0.00,,,0.00,weatherlink.com 1.10,2013-10-04 18:44:00,
2013-10-04 11:59:00,48.9,19.0,30.21,ENE,64,7.0,11.0,30,0.00,,,0.00,weatherlink.com 1.10,2013-10-04 18:59:00,
2013-10-04 12:14:00,52.6,19.0,30.21,ENE,68,1.0,8.0,27,0.00,,,0.00,weatherlink.com 1.10,2013-10-04 19:14:00,
2013-10-04 12:29:00,53.3,19.0,30.20,ESE,120,1.0,8.0,26,0.00,,,0.00,weatherlink.com 1.10,2013-10-04 19:29:00,
2013-10-04 12:44:00,52.8,19.0,30.20,NE,37,3.0,15.0,27,0.00,,,0.00,weatherlink.com 1.10,2013-10-04 19:44:00,
2013-10-04 12:59:00,51.1,18.0,30.20,East,100,0.0,14.0,27,0.00,,,0.00,weatherlink.com 1.10,2013-10-04 19:59:00,
2013-10-04 13:14:00,53.2,18.0,30.20,ENE,73,2.0,9.0,25,0.00,,,0.00,weatherlink.com 1.10,2013-10-04 20:14:00,
2013-10-04 13:29:00,53.7,18.0,30.19,East,83,1.0,9.0,24,0.00,,,0.00,weatherlink.com 1.10,2013-10-04 20:29:00,
2013-10-04 13:44:00,52.1,18.0,30.19,NE,37,9.0,10.0,26,0.00,,,0.00,weatherlink.com 1.10,2013-10-04 20:44:00,
2013-10-04 13:59:00,53.0,19.0,30.19,NE,52,2.0,10.0,26,0.00,,,0.00,weatherlink.com 1.10,2013-10-04 20:59:00,
2013-10-04 14:14:00,53.9,18.0,30.18,NNE,12,2.0,12.0,24,0.00,,,0.00,weatherlink.com 1.10,2013-10-04 21:14:00,
2013-10-04 14:29:00,52.1,17.0,30.18,NNE,30,8.0,14.0,25,0.00,,,0.00,weatherlink.com 1.10,2013-10-04 21:29:00,
2013-10-04 14:44:00,52.4,17.0,30.18,NE,50,9.0,14.0,25,0.00,,,0.00,weatherlink.com 1.10,2013-10-04 21:44:00,
2013-10-04 14:59:00,52.5,17.0,30.18,ENE,75,4.0,15.0,25,0.00,,,0.00,weatherlink.com 1.10,2013-10-04 21:59:00,
2013-10-04 15:14:00,53.0,18.0,30.18,NE,50,4.0,12.0,25,0.00,,,0.00,weatherlink.com 1.10,2013-10-04 22:14:00,
2013-10-04 15:29:00,52.2,17.0,30.18,NE,41,5.0,14.0,25,0.00,,,0.00,weatherlink.com 1.10,2013-10-04 22:29:00,
2013-10-04 15:44:00,52.1,17.0,30.18,East,88,3.0,11.0,25,0.00,,,0.00,weatherlink.com 1.10,2013-10-04 22:44:00,
2013-10-04 15:59:00,51.7,18.0,30.19,North,11,4.0,13.0,26,0.00,,,0.00,weatherlink.com 1.10,2013-10-04 22:59:00,
2013-10-04 16:14:00,52.0,19.0,30.19,ENE,74,4.0,16.0,27,0.00,,,0.00,weatherlink.com 1.10,2013-10-04 23:14:00,
2013-10-04 16:29:00,51.2,17.0,30.19,ENE,68,3.0,12.0,26,0.00,,,0.00,weatherlink.com 1.10,2013-10-04 23:29:00,
2013-10-04 16:44:00,51.2,18.0,30.19,NNE,32,0.0,10.0,27,0.00,,,0.00,weatherlink.com 1.10,2013-10-04 23:44:00,
2013-10-04 16:59:00,51.2,16.0,30.19,NNW,333,3.0,14.0,25,0.00,,,0.00,weatherlink.com 1.10,2013-10-04 23:59:00,
2013-10-04 17:14:00,50.4,16.0,30.20,North,352,1.0,9.0,25,0.00,,,0.00,weatherlink.com 1.10,2013-10-05 00:14:00,
2013-10-04 17:29:00,49.4,15.0,30.20,NNE,17,4.0,10.0,25,0.00,,,0.00,weatherlink.com 1.10,2013-10-05 00:29:00,
2013-10-04 17:44:00,47.7,14.0,30.21,ENE,61,4.0,9.0,26,0.00,,,0.00,weatherlink.com 1.10,2013-10-05 00:44:00,
2013-10-04 17:59:00,46.6,14.0,30.21,ENE,68,2.0,11.0,27,0.00,,,0.00,weatherlink.com 1.10,2013-10-05 00:59:00,
2013-10-04 18:14:00,45.8,13.0,30.22,North,8,6.0,14.0,27,0.00,,,0.00,weatherlink.com 1.10,2013-10-05 01:14:00,
2013-10-04 18:29:00,45.3,14.0,30.23,NNW,335,2.0,15.0,28,0.00,,,0.00,weatherlink.com 1.10,2013-10-05 01:29:00,
2013-10-04 18:44:00,44.7,13.0,30.23,North,359,12.0,16.0,28,0.00,,,0.00,weatherlink.com 1.10,2013-10-05 01:44:00,
2013-10-04 18:59:00,44.2,13.0,30.24,NE,43,6.0,18.0,28,0.00,,,0.00,weatherlink.com 1.10,2013-10-05 01:59:00,
2013-10-04 19:14:00,43.8,12.0,30.24,NNE,27,4.0,19.0,28,0.00,,,0.00,weatherlink.com 1.10,2013-10-05 02:14:00,
2013-10-04 19:29:00,43.5,12.0,30.24,ENE,58,9.0,14.0,28,0.00,,,0.00,weatherlink.com 1.10,2013-10-05 02:29:00,
2013-10-04 19:44:00,43.2,12.0,30.25,NNE,15,5.0,15.0,28,0.00,,,0.00,weatherlink.com 1.10,2013-10-05 02:44:00,
2013-10-04 19:59:00,42.9,12.0,30.26,NNE,32,6.0,15.0,28,0.00,,,0.00,weatherlink.com 1.10,2013-10-05 02:59:00,
2013-10-04 20:14:00,42.8,12.0,30.26,NE,37,16.0,16.0,28,0.00,,,0.00,weatherlink.com 1.10,2013-10-05 03:14:00,
2013-10-04 20:29:00,42.6,11.0,30.27,NE,37,5.0,16.0,27,0.00,,,0.00,weatherlink.com 1.10,2013-10-05 03:29:00,
2013-10-04 20:45:00,42.5,11.0,30.28,NNW,330,11.0,14.0,27,0.00,,,0.00,weatherlink.com 1.10,2013-10-05 03:45:00,
2013-10-04 21:00:00,42.4,11.0,30.28,NNE,25,4.0,13.0,28,0.00,,,0.00,weatherlink.com 1.10,2013-10-05 04:00:00,
2013-10-04 21:15:00,42.1,11.0,30.29,NE,53,2.0,9.0,28,0.00,,,0.00,weatherlink.com 1.10,2013-10-05 04:15:00,
2013-10-04 21:30:00,42.0,12.0,30.29,NE,50,0.0,9.0,29,0.00,,,0.00,weatherlink.com 1.10,2013-10-05 04:30:00,
2013-10-04 21:45:00,41.3,12.0,30.30,NE,56,3.0,10.0,30,0.00,,,0.00,weatherlink.com 1.10,2013-10-05 04:45:00,
2013-10-04 22:00:00,40.8,12.0,30.30,SE,141,3.0,8.0,31,0.00,,,0.00,weatherlink.com 1.10,2013-10-05 05:00:00,
2013-10-04 22:15:00,40.4,13.0,30.30,ENE,67,2.0,6.0,32,0.00,,,0.00,weatherlink.com 1.10,2013-10-05 05:15:00,
2013-10-04 22:30:00,40.2,13.0,30.31,NE,56,7.0,15.0,33,0.00,,,0.00,weatherlink.com 1.10,2013-10-05 05:30:00,
2013-10-04 22:45:00,40.1,13.0,30.32,NE,49,5.0,15.0,33,0.00,,,0.00,weatherlink.com 1.10,2013-10-05 05:45:00,
2013-10-04 23:00:00,39.9,13.0,30.32,ENE,57,8.0,10.0,33,0.00,,,0.00,weatherlink.com 1.10,2013-10-05 06:00:00,
2013-10-04 23:15:00,39.8,13.0,30.33,NE,56,6.0,10.0,34,0.00,,,0.00,weatherlink.com 1.10,2013-10-05 06:15:00,
2013-10-04 23:30:00,39.5,14.0,30.33,NE,47,5.0,13.0,35,0.00,,,0.00,weatherlink.com 1.10,2013-10-05 06:30:00,
2013-10-04 23:45:00,39.4,14.0,30.33,ENE,60,2.0,14.0,36,0.00,,,0.00,weatherlink.com 1.10,2013-10-05 06:45:00,